Saint Bonnet de Bellac- Haute Vienne - France
Donnes mto: mercredi, 03/10/2012
Date Horaire Temp. E. Hum. E. P.atmo. Pluie Vent Direction Direction Ensoleilleme Solaire P. de rose Temp au vent Rafales
03/10/2012 00:00 14,5 C 88 % 1018,3 hPa 0,0 mm 5,8 km/h (2 Bft) SO 225 0 min 0 W/m 12,5 C 14,5 C 7,9 km/h (2 Bft)
03/10/2012 00:10 14,4 C 88 % 1018,3 hPa 0,0 mm 2,5 km/h (1 Bft) SO 225 0 min 0 W/m 12,4 C 14,4 C 6,1 km/h (2 Bft)
03/10/2012 00:20 14,4 C 89 % 1018,4 hPa 0,0 mm 2,9 km/h (1 Bft) SO 225 0 min 0 W/m 12,6 C 14,4 C 2,9 km/h (1 Bft)
03/10/2012 00:30 14,5 C 89 % 1018,2 hPa 0,0 mm 6,1 km/h (2 Bft) O-SO 247 0 min 0 W/m 12,7 C 14,5 C 11,2 km/h (2 Bft)
03/10/2012 00:40 14,5 C 89 % 1018,2 hPa 0,0 mm 5,0 km/h (1 Bft) SO 225 0 min 0 W/m 12,7 C 14,5 C 10,8 km/h (2 Bft)
03/10/2012 00:50 14,5 C 89 % 1018,2 hPa 0,0 mm 2,9 km/h (1 Bft) SO 225 0 min 0 W/m 12,7 C 14,5 C 2,9 km/h (1 Bft)
03/10/2012 01:00 14,4 C 89 % 1018,2 hPa 0,0 mm 2,5 km/h (1 Bft) S-SO 202 0 min 0 W/m 12,6 C 14,4 C 6,1 km/h (2 Bft)
03/10/2012 01:10 14,4 C 89 % 1018,2 hPa 0,0 mm 6,1 km/h (2 Bft) O-SO 247 0 min 0 W/m 12,6 C 14,4 C 6,1 km/h (2 Bft)
03/10/2012 01:20 14,4 C 89 % 1018,1 hPa 0,0 mm 2,5 km/h (1 Bft) S-SO 202 0 min 0 W/m 12,6 C 14,4 C 4,3 km/h (1 Bft)
03/10/2012 01:30 14,4 C 89 % 1018,1 hPa 0,0 mm 5,0 km/h (1 Bft) SO 225 0 min 0 W/m 12,6 C 14,4 C 5,8 km/h (2 Bft)
03/10/2012 01:40 14,3 C 89 % 1018,0 hPa 0,0 mm 3,6 km/h (1 Bft) SO 225 0 min 0 W/m 12,5 C 14,3 C 6,5 km/h (2 Bft)
03/10/2012 01:50 14,4 C 90 % 1018,0 hPa 0,0 mm 6,8 km/h (2 Bft) SO 225 0 min 0 W/m 12,8 C 14,4 C 6,8 km/h (2 Bft)
03/10/2012 02:00 14,4 C 90 % 1018,0 hPa 0,0 mm 4,7 km/h (1 Bft) SO 225 0 min 0 W/m 12,8 C 14,4 C 9,4 km/h (2 Bft)
03/10/2012 02:10 14,4 C 90 % 1018,0 hPa 0,0 mm 2,5 km/h (1 Bft) SO 225 0 min 0 W/m 12,8 C 14,4 C 8,3 km/h (2 Bft)
03/10/2012 02:20 14,4 C 90 % 1018,0 hPa 0,0 mm 5,4 km/h (2 Bft) S-SO 202 0 min 0 W/m 12,8 C 14,4 C 11,5 km/h (2 Bft)
03/10/2012 02:30 14,4 C 90 % 1017,8 hPa 0,0 mm 3,2 km/h (1 Bft) S-SO 202 0 min 0 W/m 12,8 C 14,4 C 4,3 km/h (1 Bft)
03/10/2012 02:40 14,3 C 90 % 1017,9 hPa 0,0 mm 2,9 km/h (1 Bft) O-SO 247 0 min 0 W/m 12,7 C 14,3 C 3,2 km/h (1 Bft)
03/10/2012 02:50 14,3 C 90 % 1017,8 hPa 0,0 mm 5,0 km/h (1 Bft) SO 225 0 min 0 W/m 12,7 C 14,3 C 6,8 km/h (2 Bft)
03/10/2012 03:02 14,3 C 90 % 1017,7 hPa 0,0 mm 8,3 km/h (2 Bft) SO 225 0 min 0 W/m 12,7 C 14,3 C 12,2 km/h (2 Bft)
03/10/2012 03:10 14,2 C 90 % 1017,7 hPa 0,0 mm 4,0 km/h (1 Bft) S-SO 202 0 min 0 W/m 12,6 C 14,2 C 7,2 km/h (2 Bft)
03/10/2012 03:20 14,2 C 90 % 1017,7 hPa 0,0 mm 4,3 km/h (1 Bft) S-SO 202 0 min 0 W/m 12,6 C 14,2 C 7,6 km/h (2 Bft)
03/10/2012 03:30 14,2 C 90 % 1017,6 hPa 0,0 mm 4,0 km/h (1 Bft) SO 225 0 min 0 W/m 12,6 C 14,2 C 6,8 km/h (2 Bft)
03/10/2012 03:40 14,2 C 90 % 1017,6 hPa 0,0 mm 4,7 km/h (1 Bft) SO 225 0 min 0 W/m 12,6 C 14,2 C 6,5 km/h (2 Bft)
03/10/2012 03:50 14,1 C 90 % 1017,7 hPa 0,0 mm 3,2 km/h (1 Bft) S-SO 202 0 min 0 W/m 12,5 C 14,1 C 9,4 km/h (2 Bft)
03/10/2012 04:00 14,1 C 90 % 1017,6 hPa 0,0 mm 7,2 km/h (2 Bft) SO 225 0 min 0 W/m 12,5 C 14,1 C 9,7 km/h (2 Bft)
03/10/2012 04:10 14,0 C 89 % 1017,4 hPa 0,0 mm 7,2 km/h (2 Bft) SO 225 0 min 0 W/m 12,2 C 14,0 C 12,6 km/h (3 Bft)
03/10/2012 04:20 13,9 C 89 % 1017,4 hPa 0,0 mm 7,2 km/h (2 Bft) SO 225 0 min 0 W/m 12,1 C 13,9 C 16,9 km/h (3 Bft)
03/10/2012 04:30 13,8 C 89 % 1017,4 hPa 0,0 mm 6,8 km/h (2 Bft) O-SO 247 0 min 0 W/m 12,0 C 13,8 C 7,6 km/h (2 Bft)
03/10/2012 04:40 13,8 C 90 % 1017,6 hPa 0,0 mm 7,6 km/h (2 Bft) S-SO 202 0 min 0 W/m 12,2 C 13,8 C 11,9 km/h (2 Bft)
03/10/2012 04:50 13,8 C 90 % 1017,4 hPa 0,0 mm 3,2 km/h (1 Bft) SO 225 0 min 0 W/m 12,2 C 13,8 C 7,9 km/h (2 Bft)
03/10/2012 05:00 13,8 C 90 % 1017,4 hPa 0,0 mm 6,1 km/h (2 Bft) O-SO 247 0 min 0 W/m 12,2 C 13,8 C 8,3 km/h (2 Bft)
03/10/2012 05:10 13,8 C 90 % 1017,2 hPa 0,0 mm 5,4 km/h (2 Bft) SO 225 0 min 0 W/m 12,2 C 13,8 C 10,4 km/h (2 Bft)
03/10/2012 05:20 13,8 C 90 % 1017,1 hPa 0,0 mm 2,5 km/h (1 Bft) S-SE 157 0 min 0 W/m 12,2 C 13,8 C 6,8 km/h (2 Bft)
03/10/2012 05:30 13,8 C 90 % 1017,2 hPa 0,0 mm 5,8 km/h (2 Bft) SO 225 0 min 0 W/m 12,2 C 13,8 C 9,7 km/h (2 Bft)
03/10/2012 05:40 13,8 C 91 % 1017,0 hPa 0,0 mm 6,5 km/h (2 Bft) SO 225 0 min 0 W/m 12,4 C 13,8 C 9,7 km/h (2 Bft)
03/10/2012 05:50 13,8 C 91 % 1017,1 hPa 0,0 mm 2,9 km/h (1 Bft) O-SO 247 0 min 0 W/m 12,4 C 13,8 C 6,1 km/h (2 Bft)
03/10/2012 06:00 13,8 C 91 % 1017,1 hPa 0,0 mm 3,6 km/h (1 Bft) SO 225 0 min 0 W/m 12,4 C 13,8 C 7,9 km/h (2 Bft)
03/10/2012 06:10 13,9 C 91 % 1017,1 hPa 0,0 mm 7,2 km/h (2 Bft) SO 225 0 min 0 W/m 12,5 C 13,9 C 11,2 km/h (2 Bft)
03/10/2012 06:20 13,9 C 91 % 1017,2 hPa 0,0 mm 4,3 km/h (1 Bft) SO 225 0 min 0 W/m 12,5 C 13,9 C 7,6 km/h (2 Bft)
03/10/2012 06:30 13,9 C 90 % 1017,1 hPa 0,0 mm 4,0 km/h (1 Bft) SO 225 0 min 0 W/m 12,3 C 13,9 C 8,3 km/h (2 Bft)
03/10/2012 06:40 14,0 C 90 % 1017,1 hPa 0,0 mm 3,6 km/h (1 Bft) S-SO 202 0 min 0 W/m 12,4 C 14,0 C 4,0 km/h (1 Bft)
03/10/2012 06:50 14,0 C 90 % 1017,1 hPa 0,0 mm 1,4 km/h (1 Bft) O-SO 247 0 min 0 W/m 12,4 C 14,0 C 3,6 km/h (1 Bft)
03/10/2012 07:00 14,0 C 90 % 1017,0 hPa 0,0 mm 2,5 km/h (1 Bft) S-SO 202 0 min 0 W/m 12,4 C 14,0 C 6,1 km/h (2 Bft)
03/10/2012 07:10 13,9 C 90 % 1016,9 hPa 0,0 mm 5,8 km/h (2 Bft) S-SE 157 0 min 0 W/m 12,3 C 13,9 C 9,7 km/h (2 Bft)
03/10/2012 07:20 13,9 C 90 % 1017,0 hPa 0,0 mm 5,0 km/h (1 Bft) SO 225 0 min 0 W/m 12,3 C 13,9 C 8,3 km/h (2 Bft)
03/10/2012 07:30 13,8 C 90 % 1017,0 hPa 0,0 mm 5,8 km/h (2 Bft) SO 225 0 min 0 W/m 12,2 C 13,8 C 8,6 km/h (2 Bft)
03/10/2012 07:40 13,8 C 90 % 1017,0 hPa 0,0 mm 5,0 km/h (1 Bft) S-SO 202 0 min 0 W/m 12,2 C 13,8 C 8,3 km/h (2 Bft)
03/10/2012 07:50 13,9 C 91 % 1017,0 hPa 0,0 mm 5,8 km/h (2 Bft) S-SO 202 0 min 0 W/m 12,5 C 13,9 C 9,7 km/h (2 Bft)
03/10/2012 08:00 13,9 C 91 % 1017,0 hPa 0,0 mm 3,6 km/h (1 Bft) S-SO 202 0 min 0 W/m 12,5 C 13,9 C 4,7 km/h (1 Bft)
03/10/2012 08:10 14,0 C 91 % 1017,0 hPa 0,0 mm 5,0 km/h (1 Bft) S-SO 202 0 min 0 W/m 12,6 C 14,0 C 6,1 km/h (2 Bft)
03/10/2012 08:20 14,1 C 91 % 1017,0 hPa 0,0 mm 7,6 km/h (2 Bft) SO 225 0 min 0 W/m 12,7 C 14,1 C 13,7 km/h (3 Bft)
03/10/2012 08:30 14,1 C 90 % 1016,9 hPa 0,0 mm 3,2 km/h (1 Bft) S-SO 202 0 min 0 W/m 12,5 C 14,1 C 3,2 km/h (1 Bft)
03/10/2012 08:40 14,2 C 90 % 1016,9 hPa 0,0 mm 5,8 km/h (2 Bft) S-SO 202 0 min 0 W/m 12,6 C 14,2 C 6,5 km/h (2 Bft)
03/10/2012 08:50 14,3 C 90 % 1017,0 hPa 0,0 mm 9,0 km/h (2 Bft) SO 225 0 min 0 W/m 12,7 C 14,3 C 16,2 km/h (3 Bft)
03/10/2012 09:00 14,4 C 89 % 1017,0 hPa 0,0 mm 5,0 km/h (1 Bft) O-SO 247 0 min 0 W/m 12,6 C 14,4 C 5,0 km/h (1 Bft)
03/10/2012 09:10 14,5 C 89 % 1017,0 hPa 0,0 mm 4,0 km/h (1 Bft) S-SO 202 0 min 0 W/m 12,7 C 14,5 C 9,4 km/h (2 Bft)
03/10/2012 09:20 14,6 C 89 % 1017,1 hPa 0,0 mm 6,5 km/h (2 Bft) S-SO 202 0 min 0 W/m 12,8 C 14,6 C 6,5 km/h (2 Bft)
03/10/2012 09:30 14,8 C 88 % 1017,2 hPa 0,0 mm 2,5 km/h (1 Bft) S 180 0 min 0 W/m 12,8 C 14,8 C 4,3 km/h (1 Bft)
03/10/2012 09:40 14,8 C 89 % 1017,3 hPa 0,0 mm 2,9 km/h (1 Bft) SO 225 0 min 0 W/m 13,0 C 14,8 C 6,8 km/h (2 Bft)
03/10/2012 09:50 14,8 C 89 % 1017,4 hPa 0,0 mm 2,2 km/h (1 Bft) O-SO 247 0 min 0 W/m 13,0 C 14,8 C 6,5 km/h (2 Bft)
03/10/2012 10:00 14,8 C 89 % 1017,5 hPa 0,0 mm 7,2 km/h (2 Bft) SO 225 0 min 0 W/m 13,0 C 14,8 C 12,2 km/h (2 Bft)
03/10/2012 10:10 15,1 C 89 % 1017,5 hPa 0,0 mm 7,2 km/h (2 Bft) S-SO 202 0 min 0 W/m 13,3 C 15,1 C 11,5 km/h (2 Bft)
03/10/2012 10:20 15,4 C 88 % 1017,6 hPa 0,0 mm 7,6 km/h (2 Bft) S-SO 202 0 min 0 W/m 13,4 C 15,4 C 13,3 km/h (3 Bft)
03/10/2012 10:30 15,6 C 87 % 1017,6 hPa 0,0 mm 5,0 km/h (1 Bft) SO 225 0 min 0 W/m 13,4 C 15,6 C 5,8 km/h (2 Bft)
03/10/2012 10:40 15,8 C 86 % 1017,6 hPa 0,0 mm 4,0 km/h (1 Bft) O-SO 247 0 min 0 W/m 13,5 C 15,8 C 4,3 km/h (1 Bft)
03/10/2012 10:50 16,0 C 85 % 1017,7 hPa 0,0 mm 6,8 km/h (2 Bft) O-SO 247 0 min 0 W/m 13,5 C 16,0 C 6,8 km/h (2 Bft)
03/10/2012 11:00 16,4 C 84 % 1017,8 hPa 0,0 mm 3,2 km/h (1 Bft) SO 225 0 min 0 W/m 13,7 C 16,4 C 9,0 km/h (2 Bft)
03/10/2012 11:10 16,8 C 82 % 1017,8 hPa 0,0 mm 4,0 km/h (1 Bft) S-SO 202 0 min 0 W/m 13,7 C 16,8 C 8,3 km/h (2 Bft)
03/10/2012 11:20 16,8 C 82 % 1017,7 hPa 0,0 mm 4,0 km/h (1 Bft) N 360 0 min 0 W/m 13,7 C 16,8 C 4,0 km/h (1 Bft)
03/10/2012 11:30 16,9 C 80 % 1017,9 hPa 0,0 mm 5,4 km/h (2 Bft) O-SO 247 0 min 0 W/m 13,4 C 16,9 C 6,1 km/h (2 Bft)
03/10/2012 11:40 16,9 C 78 % 1018,0 hPa 0,0 mm 10,1 km/h (2 Bft) SO 225 0 min 0 W/m 13,0 C 16,9 C 16,6 km/h (3 Bft)
03/10/2012 11:50 16,9 C 78 % 1018,0 hPa 0,0 mm 4,3 km/h (1 Bft) O-SO 247 0 min 0 W/m 13,0 C 16,9 C 9,7 km/h (2 Bft)
03/10/2012 12:00 17,4 C 78 % 1017,8 hPa 0,0 mm 4,3 km/h (1 Bft) SO 225 0 min 0 W/m 13,5 C 17,4 C 10,4 km/h (2 Bft)
03/10/2012 12:10 17,8 C 76 % 1017,8 hPa 0,0 mm 8,3 km/h (2 Bft) SO 225 0 min 0 W/m 13,5 C 17,8 C 11,9 km/h (2 Bft)
03/10/2012 12:20 18,2 C 74 % 1017,8 hPa 0,0 mm 15,5 km/h (3 Bft) O-SO 247 0 min 0 W/m 13,5 C 18,2 C 25,6 km/h (4 Bft)
03/10/2012 12:30 18,2 C 73 % 1017,5 hPa 0,0 mm 13,3 km/h (3 Bft) SO 225 0 min 0 W/m 13,3 C 18,2 C 22,0 km/h (4 Bft)
03/10/2012 12:40 18,0 C 73 % 1017,6 hPa 0,0 mm 8,6 km/h (2 Bft) O-SO 247 0 min 0 W/m 13,1 C 18,0 C 10,4 km/h (2 Bft)
03/10/2012 12:50 17,9 C 73 % 1017,5 hPa 0,0 mm 6,1 km/h (2 Bft) S-SO 202 0 min 0 W/m 13,0 C 17,9 C 12,2 km/h (2 Bft)
03/10/2012 13:00 18,3 C 72 % 1017,5 hPa 0,0 mm 7,6 km/h (2 Bft) SO 225 0 min 0 W/m 13,2 C 18,3 C 7,6 km/h (2 Bft)
03/10/2012 13:10 18,4 C 71 % 1017,6 hPa 0,0 mm 7,9 km/h (2 Bft) SO 225 0 min 0 W/m 13,0 C 18,4 C 10,1 km/h (2 Bft)
03/10/2012 13:20 18,6 C 69 % 1017,6 hPa 0,0 mm 9,0 km/h (2 Bft) S-SE 157 0 min 0 W/m 12,8 C 18,6 C 13,0 km/h (3 Bft)
03/10/2012 13:30 18,9 C 68 % 1017,5 hPa 0,1 mm 10,4 km/h (2 Bft) O-SO 247 0 min 0 W/m 12,9 C 18,9 C 15,5 km/h (3 Bft)
03/10/2012 13:40 18,8 C 68 % 1017,4 hPa 0,0 mm 2,9 km/h (1 Bft) S-SO 202 0 min 0 W/m 12,8 C 18,8 C 6,1 km/h (2 Bft)
03/10/2012 13:50 19,2 C 67 % 1017,2 hPa 0,0 mm 7,6 km/h (2 Bft) S-SO 202 0 min 0 W/m 12,9 C 19,2 C 12,2 km/h (2 Bft)
03/10/2012 14:00 19,1 C 67 % 1017,0 hPa 0,0 mm 3,6 km/h (1 Bft) S 180 0 min 0 W/m 12,8 C 19,1 C 4,0 km/h (1 Bft)
03/10/2012 14:10 19,2 C 66 % 1016,9 hPa 0,0 mm 5,8 km/h (2 Bft) SO 225 0 min 0 W/m 12,7 C 19,2 C 5,8 km/h (2 Bft)
03/10/2012 14:20 19,3 C 65 % 1016,8 hPa 0,0 mm 13,7 km/h (3 Bft) SO 225 0 min 0 W/m 12,6 C 19,3 C 22,0 km/h (4 Bft)
03/10/2012 14:30 19,4 C 65 % 1016,7 hPa 0,0 mm 6,1 km/h (2 Bft) O-SO 247 0 min 0 W/m 12,6 C 19,4 C 10,4 km/h (2 Bft)
03/10/2012 14:40 19,6 C 63 % 1016,6 hPa 0,0 mm 9,4 km/h (2 Bft) S-SO 202 0 min 0 W/m 12,4 C 19,6 C 13,7 km/h (3 Bft)
03/10/2012 14:50 19,6 C 64 % 1016,6 hPa 0,0 mm 7,9 km/h (2 Bft) SO 225 0 min 0 W/m 12,6 C 19,6 C 9,7 km/h (2 Bft)
03/10/2012 15:00 19,6 C 61 % 1016,6 hPa 0,0 mm 10,1 km/h (2 Bft) SO 225 0 min 0 W/m 11,9 C 19,6 C 12,6 km/h (3 Bft)
03/10/2012 15:10 19,3 C 62 % 1016,5 hPa 0,0 mm 6,1 km/h (2 Bft) SO 225 0 min 0 W/m 11,8 C 19,3 C 10,1 km/h (2 Bft)
03/10/2012 15:20 19,3 C 62 % 1016,4 hPa 0,0 mm 7,6 km/h (2 Bft) O 270 0 min 0 W/m 11,8 C 19,3 C 13,0 km/h (3 Bft)
03/10/2012 15:30 19,1 C 63 % 1016,2 hPa 0,0 mm 9,0 km/h (2 Bft) SO 225 0 min 0 W/m 11,9 C 19,1 C 12,6 km/h (3 Bft)
03/10/2012 15:40 18,9 C 63 % 1016,1 hPa 0,0 mm 6,1 km/h (2 Bft) O-SO 247 0 min 0 W/m 11,7 C 18,9 C 10,1 km/h (2 Bft)
03/10/2012 15:50 18,7 C 64 % 1016,2 hPa 0,0 mm 7,6 km/h (2 Bft) SO 225 0 min 0 W/m 11,7 C 18,7 C 11,9 km/h (2 Bft)
03/10/2012 16:00 18,6 C 67 % 1016,0 hPa 0,0 mm 11,2 km/h (2 Bft) SO 225 0 min 0 W/m 12,3 C 18,6 C 11,2 km/h (2 Bft)
03/10/2012 16:10 18,8 C 68 % 1016,0 hPa 0,0 mm 5,0 km/h (1 Bft) O-SO 247 0 min 0 W/m 12,8 C 18,8 C 7,9 km/h (2 Bft)
03/10/2012 16:20 18,8 C 68 % 1015,8 hPa 0,0 mm 7,9 km/h (2 Bft) SO 225 0 min 0 W/m 12,8 C 18,8 C 9,4 km/h (2 Bft)
03/10/2012 16:30 18,8 C 68 % 1015,9 hPa 0,0 mm 13,7 km/h (3 Bft) O-SO 247 0 min 0 W/m 12,8 C 18,8 C 16,2 km/h (3 Bft)
03/10/2012 16:40 18,8 C 69 % 1015,8 hPa 0,0 mm 6,5 km/h (2 Bft) SO 225 0 min 0 W/m 13,0 C 18,8 C 9,4 km/h (2 Bft)
03/10/2012 16:50 18,7 C 70 % 1015,8 hPa 0,0 mm 6,8 km/h (2 Bft) S 180 0 min 0 W/m 13,1 C 18,7 C 11,2 km/h (2 Bft)
03/10/2012 17:00 18,6 C 70 % 1015,7 hPa 0,0 mm 4,3 km/h (1 Bft) SO 225 0 min 0 W/m 13,0 C 18,6 C 13,3 km/h (3 Bft)
03/10/2012 17:10 18,3 C 71 % 1015,6 hPa 0,0 mm 9,4 km/h (2 Bft) S-SO 202 0 min 0 W/m 12,9 C 18,3 C 20,9 km/h (4 Bft)
03/10/2012 17:20 18,2 C 71 % 1015,6 hPa 0,0 mm 4,3 km/h (1 Bft) SO 225 0 min 0 W/m 12,9 C 18,2 C 4,3 km/h (1 Bft)
03/10/2012 17:30 18,3 C 72 % 1015,5 hPa 0,0 mm 6,5 km/h (2 Bft) S-SO 202 0 min 0 W/m 13,2 C 18,3 C 9,4 km/h (2 Bft)
03/10/2012 17:40 18,3 C 71 % 1015,4 hPa 0,0 mm 6,1 km/h (2 Bft) SO 225 0 min 0 W/m 12,9 C 18,3 C 10,8 km/h (2 Bft)
03/10/2012 17:50 18,3 C 70 % 1015,3 hPa 0,0 mm 7,9 km/h (2 Bft) S 180 0 min 0 W/m 12,7 C 18,3 C 8,6 km/h (2 Bft)
03/10/2012 18:00 18,4 C 70 % 1015,3 hPa 0,0 mm 5,0 km/h (1 Bft) O-SO 247 0 min 0 W/m 12,8 C 18,4 C 10,1 km/h (2 Bft)
03/10/2012 18:10 18,3 C 69 % 1015,3 hPa 0,0 mm 4,7 km/h (1 Bft) SO 225 0 min 0 W/m 12,5 C 18,3 C 11,5 km/h (2 Bft)
03/10/2012 18:20 18,2 C 69 % 1015,2 hPa 0,0 mm 9,4 km/h (2 Bft) SO 225 0 min 0 W/m 12,4 C 18,2 C 13,0 km/h (3 Bft)
03/10/2012 18:30 18,1 C 69 % 1015,3 hPa 0,0 mm 2,9 km/h (1 Bft) SO 225 0 min 0 W/m 12,3 C 18,1 C 8,3 km/h (2 Bft)
03/10/2012 18:40 18,0 C 70 % 1015,3 hPa 0,0 mm 8,3 km/h (2 Bft) SO 225 0 min 0 W/m 12,4 C 18,0 C 8,6 km/h (2 Bft)
03/10/2012 18:50 17,9 C 70 % 1015,3 hPa 0,0 mm 4,0 km/h (1 Bft) SO 225 0 min 0 W/m 12,3 C 17,9 C 10,4 km/h (2 Bft)
03/10/2012 19:00 17,8 C 71 % 1015,2 hPa 0,0 mm 6,8 km/h (2 Bft) SO 225 0 min 0 W/m 12,5 C 17,8 C 9,7 km/h (2 Bft)
03/10/2012 19:10 17,6 C 71 % 1015,2 hPa 0,0 mm 6,8 km/h (2 Bft) SO 225 0 min 0 W/m 12,3 C 17,6 C 8,6 km/h (2 Bft)
03/10/2012 19:20 17,4 C 71 % 1015,3 hPa 0,0 mm 9,4 km/h (2 Bft) SO 225 0 min 0 W/m 12,1 C 17,4 C 11,5 km/h (2 Bft)
03/10/2012 19:30 17,3 C 72 % 1015,4 hPa 0,0 mm 6,1 km/h (2 Bft) SO 225 0 min 0 W/m 12,2 C 17,3 C 9,7 km/h (2 Bft)
03/10/2012 19:40 17,1 C 72 % 1015,5 hPa 0,0 mm 7,6 km/h (2 Bft) S-SO 202 0 min 0 W/m 12,0 C 17,1 C 7,6 km/h (2 Bft)
03/10/2012 19:50 16,9 C 74 % 1015,5 hPa 0,0 mm 6,5 km/h (2 Bft) SO 225 0 min 0 W/m 12,2 C 16,9 C 10,1 km/h (2 Bft)
03/10/2012 20:00 16,8 C 76 % 1015,4 hPa 0,0 mm 4,3 km/h (1 Bft) SO 225 0 min 0 W/m 12,5 C 16,8 C 7,6 km/h (2 Bft)
03/10/2012 20:10 16,5 C 78 % 1015,6 hPa 0,0 mm 7,6 km/h (2 Bft) SO 225 0 min 0 W/m 12,6 C 16,5 C 9,7 km/h (2 Bft)
03/10/2012 20:20 16,3 C 80 % 1015,6 hPa 0,0 mm 5,4 km/h (2 Bft) O-SO 247 0 min 0 W/m 12,8 C 16,3 C 9,0 km/h (2 Bft)
03/10/2012 20:30 16,2 C 81 % 1015,6 hPa 0,0 mm 3,2 km/h (1 Bft) SO 225 0 min 0 W/m 12,9 C 16,2 C 3,2 km/h (1 Bft)
03/10/2012 20:40 16,0 C 82 % 1015,6 hPa 0,0 mm 5,8 km/h (2 Bft) S-SO 202 0 min 0 W/m 12,9 C 16,0 C 7,9 km/h (2 Bft)
03/10/2012 20:50 15,9 C 82 % 1015,7 hPa 0,0 mm 4,0 km/h (1 Bft) S 180 0 min 0 W/m 12,8 C 15,9 C 6,8 km/h (2 Bft)
03/10/2012 21:00 15,8 C 82 % 1015,7 hPa 0,0 mm 6,1 km/h (2 Bft) S-SO 202 0 min 0 W/m 12,7 C 15,8 C 10,1 km/h (2 Bft)
03/10/2012 21:10 15,8 C 83 % 1015,6 hPa 0,0 mm 3,6 km/h (1 Bft) SO 225 0 min 0 W/m 12,9 C 15,8 C 9,0 km/h (2 Bft)
03/10/2012 21:20 15,8 C 84 % 1015,6 hPa 0,0 mm 5,0 km/h (1 Bft) SO 225 0 min 0 W/m 13,1 C 15,8 C 7,6 km/h (2 Bft)
03/10/2012 21:30 15,6 C 84 % 1015,6 hPa 0,0 mm 6,5 km/h (2 Bft) S-SO 202 0 min 0 W/m 12,9 C 15,6 C 10,1 km/h (2 Bft)
03/10/2012 21:40 15,5 C 84 % 1015,6 hPa 0,0 mm 5,4 km/h (2 Bft) SO 225 0 min 0 W/m 12,8 C 15,5 C 6,5 km/h (2 Bft)
03/10/2012 21:50 15,4 C 84 % 1015,7 hPa 0,0 mm 6,8 km/h (2 Bft) S-SO 202 0 min 0 W/m 12,7 C 15,4 C 8,3 km/h (2 Bft)
03/10/2012 22:00 15,3 C 85 % 1015,8 hPa 0,0 mm 4,7 km/h (1 Bft) S-SO 202 0 min 0 W/m 12,8 C 15,3 C 8,3 km/h (2 Bft)
03/10/2012 22:10 15,3 C 86 % 1015,6 hPa 0,0 mm 5,0 km/h (1 Bft) O-SO 247 0 min 0 W/m 13,0 C 15,3 C 5,0 km/h (1 Bft)
03/10/2012 22:20 15,3 C 86 % 1015,5 hPa 0,0 mm 5,0 km/h (1 Bft) SO 225 0 min 0 W/m 13,0 C 15,3 C 6,1 km/h (2 Bft)
_ Min-Heure 07:40 15:00 19:10 - 06:50 - - - - 15:40 07:40 00:50
Minimum _ 13,8 C 61 % 1015,2 hPa - 1,4 km/h (1 Bft) - - - - 11,7 C 13,8 C 2,9 km/h (1 Bft)
_ Max-Heure 15:00 08:20 00:20 13:30 12:20 - - 22:20 22:20 11:20 15:00 12:20
Maximum _ 19,6 C 91 % 1018,4 hPa 0,1 mm 15,5 km/h
O-SO (3 Bft)
- - 0 min 0 W/m 13,7 C 19,6 C 25,6 km/h
O-SO (4 Bft)
Moyenne _ 16,1 C 81 % 1016,9 hPa #0,1 mm 5,9 km/h (2 Bft) SO - #0 min. 0 W/m 12,7 C 16,1 C 9,2 km/h (2 Bft)
Saint Bonnet de Bellac- Haute Vienne - France